Regional Weather Roundup
Issued by NWS Goodland, KS

Home | Current Version | Previous Version | Graphics & Text | Print | Product List | Glossary On
Versions: 1 2 3 4 5 6 7 8 9 10 11 12 13 14 15 16 17 18 19 20 21 22 23 24 25 26 27 28 29 30 31 32 33 34 35 36 37 38 39 40 41 42 43 44 45 46 47 48 49 50
000
ASUS43 KGLD 071959
RWRGLD

GOODLAND FORECAST AREA HOURLY WEATHER ROUNDUP
NATIONAL WEATHER SERVICE GOODLAND KS
200 PM MDT TUE JUL 07 2015

...OFFICIAL OBSERVATIONS...

CITY           SKY/WX    TMP DP  RH WIND       PRES   REMARKS
GOODLAND KS    SUNNY     74  45  35 SE15      30.16F
HILL CITY KS   MOSUNNY   78  48  34 NE12G23   30.13F HAZE
IMPERIAL NEB   MOSUNNY   78  45  30 SE12G23   30.15F
MCCOOK NEB     SUNNY     76  50  40 E12       30.14F
AKRON CO       MOSUNNY   73  49  42 S18G26    30.17F
BURLINGTON CO  MOSUNNY   74  44  34 SE14      30.17F
LIMON CO       PTSUNNY   69  49  48 S16G28    30.19F
$$

...UNOFFICIAL OBSERVATIONS...

CITY           SKY/WX    TMP DP  RH WIND       PRES   REMARKS
COLBY KS       SUNNY     75  48  38 E10G17    30.17F
GOVE KS          N/A     75  32  20 MISG        N/A
NORTON KS      SUNNY     75  43  31 E9G17     30.13F
SHARON SPRINGS   N/A     74  46  36 E8G20       N/A
KIT CARSON CO    N/A     73  47  39 MISG        N/A
$$



USA.gov is the U.S. government's official web portal to all federal, state and local government web resources and services.